Regional Weather Roundup
Issued by NWS

Home | Current Version | Previous Version | Text Only | Print | Product List | Glossary Off
Versions: 1 2 3 4 5 6 7 8 9 10 11 12 13 14 15 16 17 18 19 20 21 22 23 24 25 26 27 28 29 30 31 32 33 34 35 36 37 38 39 40 41 42 43 44 45 46 47 48 49 50

000
ASUS43 KMKX 221321
RWRWI

WISCONSIN REGIONAL WEATHER ROUNDUP
NATIONAL WEATHER SERVICE MILWAUKEE/SULLIVAN WI
700 AM CST MON DEC 22 2014

NOTE: "FAIR" INDICATES FEW OR NO CLOUDS BELOW 12,000 FEET WITH NO
SIGNIFICANT WEATHER AND/OR OBSTRUCTIONS TO VISIBILITY.

WIZ001-002-006>008-014>016-023>028-221400-
NORTHWEST WISCONSIN

CITY           SKY/WX    TMP DP  RH WIND       PRES   REMARKS
SUPERIOR ARPT  MIX PCPN  32  32 100 NE5       29.72S WCI  28
ASHLAND        CLOUDY    36  33  89 VRB5      29.77R WCI  32
HAYWARD        CLOUDY    34  32  92 SE8G18    29.73S FOG     WCI  27
SIREN          CLOUDY    35  34  96 SE9       29.70S FOG     WCI  28
CUMBERLAND     RAIN      32  32 100 SE10      29.71S WCI  24
RICE LAKE      CLOUDY    34  33  97 SE14      29.75R FOG     WCI  25
CHETEK         CLOUDY    34  33  98 SE10G17   29.75R FOG     WCI  26
LADYSMITH      CLOUDY    34  33  96 SE9       29.78S FOG     WCI  27
EAU CLAIRE     CLOUDY    35  32  88 SE13      29.75S FOG     WCI  26
MENOMONIE      CLOUDY    36  35  96 SE9       29.74S FOG     WCI  29
NEW RICHMOND   CLOUDY    36  36 100 SE9       29.70S FOG     WCI  29
OSCEOLA        DRIZZLE   36  36 100 SE10      29.72S WCI  28
$$

WIZ003>005-009-010-017-018-221400-
NORTH CENTRAL WISCONSIN

CITY           SKY/WX    TMP DP  RH WIND       PRES   REMARKS
MANITOWISH WTR CLOUDY    32  32 100 S8        29.79R FOG     WCI  25
ARBOR VITAE    CLOUDY    34  33  94 S10       29.80S FOG     WCI  26
WOODRUFF       CLOUDY    34  33  94 S10       29.80S FOG     WCI  26
RHINELANDER    CLOUDY    31  30  96 S9        29.82S FOG     WCI  23
EAGLE RIVER    CLOUDY    32  32 100 S8        29.82R FOG     WCI  24
LAND O LAKES   CLOUDY    32  32  99 S10       29.82S FOG     WCI  24
PHILLIPS       CLOUDY    32  32  99 SE8       29.78R FOG     WCI  25
TOMAHAWK       CLOUDY    32  31  96 CALM      29.82S FOG
MEDFORD        CLOUDY    32  31  97 SE10G16   29.79F FOG     WCI  23
MERRILL        CLOUDY    32  32  99 S8        29.83S FOG     WCI  25
$$

WIZ029-030-035-036-043>047-221400-
CENTRAL WISCONSIN

CITY           SKY/WX    TMP DP  RH WIND       PRES   REMARKS
WAUSAU         CLOUDY    33  30  88 SE9       29.83S FOG     WCI  25
MOSINEE        CLOUDY    32  32 100 SE9       29.84S FOG     WCI  24
MARSHFIELD     CLOUDY    34  31  88 SE13      29.82S FOG     WCI  25
STEVENS POINT  CLOUDY    32  29  91 SE9       29.86S FOG     WCI  24
WAUPACA        LGT SNOW  35  31  85 SE8       29.89S WCI  29
WAUTOMA        CLOUDY    34  32  92 SE6       29.88S FOG     WCI  29
WISC RAPIDS    CLOUDY    34  29  82 SE7       29.85S WCI  28
CAMP DOUGLAS   CLOUDY    34  34 100 SE9       29.82F FOG     WCI  26
$$

WIZ011>013-019>022-031-037>040-048>050-221400-
NORTHEAST WISCONSIN

CITY           SKY/WX    TMP DP  RH WIND       PRES   REMARKS
ANTIGO         CLOUDY    30  30  99 SE12      29.84S FOG     WCI  21
SHAWANO        CLOUDY    36  31  84 S7        29.90S HAZE    WCI  30
OCONTO         CLOUDY    35  33  92 S7        29.92S WCI  29
STURGEON BAY   CLOUDY    36  30  80 S13G18    29.96R WCI  27
GREEN BAY      LGT SNOW  34  32  92 S10       29.92S FOG     WCI  26
MANITOWOC      CLOUDY    37  34  89 S14       29.95R WCI  28
APPLETON       DRIZZLE   34  32  93 SE10      29.90S FOG     WCI  26
CLINTONVILLE   LGT RAIN  34  30  86 SE10      29.89S WCI  26
OSHKOSH        MIX PCPN  33  31  92 SE12      29.91R FOG     WCI  24
$$

WIZ032>034-041-042-053>061-221400-
SOUTHWEST WISCONSIN

CITY           SKY/WX    TMP DP  RH WIND       PRES   REMARKS
LA CROSSE      CLOUDY    38  32  79 SE12      29.78F WCI  30
SPARTA         CLOUDY    35  31  86 SE5       29.82S WCI  31
VIROQUA        CLOUDY    33  33 100 SE12      29.78S WCI  24
BOSCOBEL       CLOUDY    36  31  82 VRB6      29.82S WCI  31
PRAIRIE DU CHI CLOUDY    35  31  87 E9        29.79S FOG     WCI  28
PLATTEVILLE    CLOUDY    34  32  92 SE14      29.81F WCI  25
$$

WIZ056-057-062-063-064-067-068-221400-
SOUTH CENTRAL WISCONSIN

CITY           SKY/WX    TMP DP  RH WIND       PRES   REMARKS
REEDSBURG      CLOUDY    34  32  92 SE5       29.84S WCI  29
BARABOO/DELLS  CLOUDY    33  31  92 SE13      29.84F FOG     WCI  24
LONE ROCK      CLOUDY    38  31  76 E8        29.84S WCI  32
MINERAL POINT  CLOUDY    34  32  93 SE12      29.81F FOG     WCI  25
MADISON        CLOUDY    34  30  85 S12       29.87S FOG     WCI  25
MIDDLETON      CLOUDY    35  32  90 SE9       29.86F WCI  28
WATERTOWN      MIX PCPN  32  32 100 E8        29.89F WCI  25
MONROE         CLOUDY    32  32 100 SE13      29.84F FOG     WCI  22
JANESVILLE     CLOUDY    34  32  93 SE9       29.89S FOG     WCI  26
$$

WIZ051-052-058>065-066-070>072-221400-
SOUTHEAST WISCONSIN

CITY           SKY/WX    TMP DP  RH WIND       PRES   REMARKS
MILWAUKEE      CLOUDY    35  29  78 S13       29.95S WCI  26
WAUKESHA       CLOUDY    30  27  86 SE12      29.93S FOG     WCI  21
MILWAUKEE/TIMM CLOUDY    34  28  80 S6        29.95S WCI  29
RACINE         CLOUDY    35  30  82 SE10      29.96F WCI  27
BURLINGTON     CLOUDY    31  27  85 SE8       29.92F WCI  23
KENOSHA        CLOUDY    34  30  85 SE8       29.94F FOG     WCI  27
FOND DU LAC    LGT SNOW  33  30  88 SE10      29.91S FOG     WCI  25
SHEBOYGAN      CLOUDY    36  32  85 S9        29.94S WCI  29
WEST BEND      LGT SNOW  32  28  86 SE8       29.93S WCI  25
JUNEAU         MIX PCPN  32  31  96 SE13      29.90F WCI  22
$$

LSZ147-162-221400-
LAKE SUPERIOR

STATION/POSITION TIME  TEMP    WIND        PRES    WAVE
                       AIR SEA DIR/SP/G            HT/PER
                 (UTC) (F)     (DEG/KT/KT) (MB)    (FT/S)
DEVILS ISLAND    1300   36     150/  9/ 11 1008.7R
PORT WING        1240   36     150/  5/  9 1007.1F
SAXON HARBOR     1200   38     170/  4/ 11 1008.5
$$

LMZ867-665-643>646-221400-
LAKE MICHIGAN

STATION/POSITION TIME  TEMP    WIND        PRES    WAVE
                       AIR SEA DIR/SP/G            HT/PER
                 (UTC) (F)     (DEG/KT/KT) (MB)    (FT/S)
CHAMBERS ISLAND  1200   37     140/  5/ 11 1014.2S
NORTHPORT PIER   1300   35     150/ 11/ 23 1014.6S
SISTER BAY       1213          180/ 12/ 17   N/A
ALGOMA LAKESHORE 1215          210/ 21/ 26   N/A
KEWAUNEE LAKESHO 1200   37     180/ 16/ 18 1013.4S
SHEBOYGAN LAKESH 1300   37 36  160/ 20/ 23 1014.8R
PORT WASHINGTON  1240   37     180/ 11/ 18 1014.9S
MILWAUKEE LAKESH 1300   36     170/ 13/ 15   N/A
KENOSHA   LAKESH 1300   35     160/ 16/ 17 1013.9F
$$

TC  - TEMPERATURE IN CELSIUS
VSB - VISIBILITY IN STATUTE MILES
WCI - WIND CHILL INDEX
HX  - HEAT INDEX



USA.gov is the U.S. government's official web portal to all federal, state and local government web resources and services.